Tracking 27111 objects as of 28-Mar-2023
HD Live streaming from Space Station
objects crossing your sky now

STARLINK-5646

Track STARLINK-5646 now!
10-day predictions
STARLINK-5646 is classified as:


NORAD ID: 55461
Int'l Code: 2023-015N
Perigee: 433.4 km
Apogee: 435.3 km
Inclination: 43.0 °
Period: 93.1 minutes
Semi major axis: 6805 km
RCS: Unknown
Launch date: February 2, 2023
Source: United States (US)
Launch site: AIR FORCE EASTERN TEST RANGE (AFETR)
Your satellite tracking list
Your tracking list is empty




NASA's NSSDC Master Catalog

Two Line Element Set (TLE):
1 55461U 23015N   23087.58334491 -.00975250  00000-0 -21035-1 0  9991
2 55461  43.0008  63.1593 0001388 269.4690 203.4911 15.46431826  8672
Source of the keplerian elements: AFSPC